sat.trackr.live / text

‹ back to catalog

ONEWEB-0252

NORAD 48970 · 2021-060D

PAYLOAD ACTIVE UNKNOWN

§ Identity

Operator
Country
UK
Launch date
2021-07-01
Launch site
VOSTO
Launch vehicle
Mass (kg)
RCS (m²)

Purposes: comms

External: N2YO · Heavens-Above · Gunter

§ Orbital elements

Epoch: 2026-09-20T03:44:36.563136Z

Period
109.37 min
Inclination
87.9157°
Eccentricity
0.0002106
Mean motion
13.16597061 rev/d
Perigee alt
1,196.2 km
Apogee alt
1,199.3 km
Semi-major
7,575.9 km
B*
2.4569e-4
RAAN
209.9160°
Arg perigee
86.8191°
Mean anomaly
273.3181°
Rev number
25,215

§ Raw data

ONEWEB-02521 48970U 21060D   26263.15597874  .00000107  00000+0  24569-3 0  99982 48970  87.9157 209.9160 0002106  86.8191 273.3181 13.16597061252155

JSON: /api/v1/satellites/48970 · /tle

For live sub-satellite position, see the globe view (requires WebGL).

§ Visibility from observer

Set your observer location to see the next 7 days of passes ≥ 10°. The values pass through the URL so the page stays shareable.

No JS? Fill the form by hand. The geolocation button needs JavaScript.